Regional Weather Roundup
Issued by NWS Boston, MA

Current Version | Previous Version | Text Only | Print | Product List | Glossary Off
Versions: 1 2 3 4 5 6 7 8 9 10 11 12 13 14 15 16 17 18 19 20 21 22 23 24 25 26 27

000
ASUS41 KBOX 200410
RWRBOX

REGIONAL WEATHER ROUNDUP
NATIONAL WEATHER SERVICE BOSTON/NORTON MA
1200 AM EDT FRI APR 20 2018

NOTE:  "FAIR" INDICATES FEW OR NO CLOUDS BELOW 12,000 FEET WITH NO
SIGNIFICANT WEATHER AND/OR OBSTRUCTIONS TO VISIBILITY.

MAZALL-200500-
EASTERN MASSACHUSETTS

CITY           SKY/WX    TMP DP  RH WIND       PRES   REMARKS
BOSTON         CLOUDY    40  30  67 NW13      29.83R
BEVERLY        CLOUDY    40  28  62 NW12G24   29.80R
LAWRENCE       MOCLDY    41  28  60 NW10G18   29.83R
BEDFORD        CLOUDY    39  30  70 W12       29.82R WCI  32
BLUE HILL        N/A     36  32  85 W14G22    29.80R WCI  27
NORWOOD        CLOUDY    42  33  70 W9        29.84R
MARSHFIELD     FAIR      41  34  75 VRB6G12   29.81R
PLYMOUTH       CLOUDY    40  34  79 W9        29.82R
TAUNTON        CLOUDY    40  33  76 W8        29.83R
NEW BEDFORD    CLOUDY    39  34  82 W10       29.83R
$$

MAZALL-200500-
CAPE COD AND THE ISLANDS

CITY           SKY/WX    TMP DP  RH WIND       PRES   REMARKS
FALMOUTH         N/A     39  34  81 NW10G20   29.82
HYANNIS        LGT RAIN  41  37  86 NW10      29.79R
CHATHAM        LGT RAIN  41  39  93 NW7       29.80R
PROVINCETOWN   LGT RAIN  40  36  86 NW13      29.81R
NANTUCKET      LGT RAIN  40  39  97 W10       29.81R
MARTHAS VNYRD  CLOUDY    40  35  83 NW10G21   29.83R
$$

MAZALL-200500-
CENTRAL AND WESTERN MASSACHUSETTS

CITY           SKY/WX    TMP DP  RH WIND       PRES   REMARKS
WORCESTER      CLOUDY    33  28  81 W17       29.83R WCI  22
FITCHBURG      CLOUDY    39  31  72 NW13      29.85R WCI  31
ORANGE         CLOUDY    34  32  92 W6        29.87S WCI  29
SPRINGFIELD    MOCLDY    37  29  71 W7        29.89R WCI  32
WESTFIELD      CLOUDY    37  27  67 NW15      29.90R WCI  28
NORTH ADAMS    LGT SNOW  32  29  88 SW10      29.91R FOG     WCI  24
PITTSFIELD     LGT SNOW  31  25  78 W15       29.89R WCI  20
$$

RIZALL-200500-
RHODE ISLAND

CITY           SKY/WX    TMP DP  RH WIND       PRES   REMARKS
PROVIDENCE     CLOUDY    39  33  79 NW12G22   29.86R WCI  32
NEWPORT        CLOUDY    39  32  76 NW12      29.85R WCI  32
BLOCK ISLAND   CLOUDY    39  30  70 NW14G24   29.89R WCI  31
SMITHFIELD     CLOUDY    37  31  78 MISG      29.84R
WESTERLY       CLOUDY    40  30  67 NW8       29.89R
$$

CTZALL-200500-
CONNECTICUT

CITY           SKY/WX    TMP DP  RH WIND       PRES   REMARKS
BRADLEY INTL   CLOUDY    37  27  67 NW18      29.91R WCI  27
HARTFORD       CLOUDY    39  26  59 NW12G18   29.93R WCI  32
BRIDGEPORT     MOCLDY    39  25  57 W14       29.96R WCI  31
DANBURY        FAIR      36  24  62 W8        29.96R WCI  30
GROTON         CLOUDY    38  29  70 NW12G21   29.90R WCI  30
NEW HAVEN      CLOUDY    40  26  57 NW8       29.95R
CHESTER        FAIR      37  25  60 NW14G25   29.90S WCI  29
MERIDEN        MOCLDY    37  25  61 NW12      29.94R WCI  29
WILLIMANTIC    FAIR      37  29  72 W6        29.90R
OXFORD         FAIR      34  25  69 NW9G16    29.93R WCI  27
$$

MEZ002-015-021-024-NHZ003-005-008-011-012-014-VTZ005-008-200500-
NORTHERN NEW ENGLAND

CITY           SKY/WX    TMP DP  RH WIND       PRES   REMARKS
PORTLAND ME    CLOUDY    39  30  70 NW8       29.77S
BANGOR ME      CLOUDY    39  32  76 NW8       29.72S
CONCORD NH     CLOUDY    38  28  67 NW13      29.82R WCI  30
MANCHESTER NH  MOCLDY    41  26  55 NW14G23   29.81S
NASHUA NH      CLOUDY    39  29  67 W12       29.83R WCI  32
PORTSMOUTH NH  CLOUDY    39  28  64 NW9       29.78R
JAFFREY NH     CLOUDY    34  29  82 VRB5      29.82R WCI  30
KEENE NH       LGT RAIN  35  29  78 W6        29.87  WCI  30
BURLINGTON VT  CLOUDY    36  27  69 NW13      29.90R WCI  27
MT. WASHINGTON SNOW      14  14 100 W37G44      N/A  VSB 0   WCI  -9
$$

NYZ052-076-200500-
EASTERN NEW YORK

CITY           SKY/WX    TMP DP  RH WIND       PRES   REMARKS
ALBANY         CLOUDY    35  23  61 NW17      29.96R WCI  25
NEW YORK CITY  FAIR      40  25  55 NW20G26   30.01R WCI  30
$$

ANZALL-200500-
MARINE OBSERVATIONS

STATION/POSITION TIME  TEMP    WIND        PRES    VSBY  WAVE
                       AIR SEA DIR/SP/G                  HT/PER
                 (UTC) (F)     (DEG/KT/KT) (MB)    (MI)  (FT/S)
BOSTON BUOY      0350   42 42  300/ 17/ 21 1008.1R         2/ 3
BUZZARDS BAY     0300   41     300/ 21/ 22 1010.8R
NANTUCKET SOUND  0350   42 43  300/ 17/ 21 1008.7F         1/ 3
MASS BAY-STELLWA 0304   40 41              1007.5R
ISLE OF SHOALS   0300   40     300/ 11/ 13 1008.2S
S OF BLOCK IS    0343      41                N/A           4/ 9
$$

......................KEY.........................
  SKY/WX - SKY CONDITION/PRESENT WEATHER
  TMP    - TEMPERATURE IN FAHRENHEIT
  DWPT   - DEWPOINT IN FAHRENHEIT
  RH     - RELATIVE HUMIDITY IN PERCENT
  WIND   - DIRECTION AND SPEED IN MPH
  PRES   - MEAN SEA LEVEL PRESSURE IN INCHES OF HG
  WCI    - WIND CHILL INDEX
  VSB    - VISIBILITY IN MILES
  HX     - HEAT INDEX
  TC     - TEMPERATURE IN CELSIUS
  VRB    - VARIABLE WIND DIRECTION
  N/A    - NOT AVAILABLE




USA.gov is the U.S. government's official web portal to all federal, state and local government web resources and services.